Location: ??????
(42.0089°N, 44.3281°E)
Time: 15:39:54
(UTC+00:00)

Cosmos 2251 Rocket - Visible Passes

Search period start: 23 September 2023 00:00
Search period end: 03 October 2023 00:00
Orbit: 764 x 790 km, 74.0° (Epoch: 22 September)

Date Brightness Start Highest point End Pass type
(mag) Time Alt. Az. Time Alt. Az. Time Alt. Az.
28 Sep 6.4 02:14:45 10° NNE 02:17:19 14° NE 02:19:51 10° E visible
01 Oct 6.0 02:12:41 10° N 02:16:55 24° ENE 02:21:07 10° ESE visible
01 Oct 5.8 17:01:24 11° NNE 17:01:24 11° NNE 17:01:36 10° NNE visible
01 Oct 6.2 18:41:45 14° NNW 18:41:45 14° NNW 18:42:53 10° N visible
02 Oct 6.3 01:39:04 10° NNE 01:42:16 16° NE 01:45:27 10° E visible
02 Oct 4.2 16:17:25 10° SSE 16:25:18 19° NE 16:26:58 10° NE visible
02 Oct 5.3 17:59:53 10° WSW 18:05:20 28° NW 18:09:04 10° N visible
